Weather Roundup
Issued by NWS

Home | Current Version | Previous Version | Text Only | Print | Product List | Glossary On
Versions: 1 2 3 4 5 6 7 8 9 10 11 12 13 14 15 16 17 18 19 20 21 22 23 24 25 26 27 28 29 30 31 32 33 34 35 36 37 38 39 40 41 42 43 44 45 46 47 48 49 50
000
NZUS93 KARX 270510
HRRWXR

CURRENT HOURLY OBSERVATIONS ACROSS
MUCH OF THE UPPER MISSISSIPPI VALLEY
NATIONAL WEATHER SERVICE LA CROSSE WI
1200 AM CDT WED JUL 27 2016


...SOUTHEAST MINNESOTA...


CITY           SKY/WX    TMP DP  RH WIND       PRES   REMARKS
ROCHESTER      CLEAR     71  68  90 SW7       30.03F
ROCHESTER/MAYO FAIR      76  66  73 SW10      30.02F
WINONA         CLEAR     77  68  73 CALM      29.99F
AUSTIN         CLEAR     70  66  88 CALM      30.02F
ALBERT LEA     MOCLDY    75  66  73 S7        30.01F
DODGE CENTER   CLEAR     72  66  83 SW9       30.02F
PRESTON        CLEAR     69  66  89 SW6       30.04F
OWATONNA       CLEAR     73  66  78 S5        30.01F
FARIBAULT      PTCLDY    70  68  94 CALM      30.02S
$$

...ELSEWHERE IN MINNESOTA...


CITY           SKY/WX    TMP DP  RH WIND       PRES   REMARKS
MINNEAPOLIS    MOCLDY    80  68  66 SW7       29.99S
INTNL FALLS    CLOUDY    64  59  83 N5        30.00R
DULUTH         CLOUDY    72  67  84 N7        29.97F
RED WING       PTCLDY    72  68  88 CALM      29.98S
REDWOOD FALLS  PTCLDY    74  69  85 SW3       29.99R
MANKATO        CLOUDY    73  66  78 S3        30.00F
WORTHINGTON    CLOUDY    72  67  84 S10       30.02F
FAIRMONT       PTCLDY    72  66  83 S7        30.01S
$$

...SOUTHWEST WISCONSIN...


CITY           SKY/WX    TMP DP  RH WIND       PRES   REMARKS
LA CROSSE      CLEAR     77  70  79 CALM      29.99S
PRAIRIE DU CHI CLEAR     69  65  89 CALM      30.01S
BOSCOBEL       CLEAR     69  67  93 CALM      30.01F
LONE ROCK      CLEAR     68  65  90 CALM      30.02S
PLATTEVILLE    CLEAR     69  68  98 CALM      30.03S
FORT MC COY    PTCLDY    67  65  96 CALM      30.02S
CAMP DOUGLAS   FOG       64  63  94 W2        30.00F VSB 1
MAUSTON-NEW LI CLEAR     75  67  76 SW5       30.00S
VIROQUA        FAIR      70  67  89 S5        30.04S
WIS DELLS      CLEAR     69  63  81 CALM      30.02S
$$

...ELSEWHERE IN WISCONSIN...


CITY           SKY/WX    TMP DP  RH WIND       PRES   REMARKS
MILWAUKEE      CLEAR     75  63  66 SW5       30.00F
MADISON        CLEAR     71  67  87 CALM      30.01S
GREEN BAY      CLEAR     74  70  87 SW6       29.97S
EAU CLAIRE     PTCLDY    74  68  81 VRB6      30.00R
BLACK RVR FLS  FAIR      67  67 100 CALM      30.00S
MEDFORD        PTCLDY    71  69  93 SW6       30.01R
WAUSAU         PTCLDY    75  67  76 W3        29.98S
WIS RAPIDS     CLEAR     73  65  75 SW6       30.01S
MARSHFIELD     CLEAR     72  66  81 W6        30.01S
RICE LAKE      PTCLDY    69  64  85 CALM      30.02R
$$

...NORTHEAST IOWA...


CITY           SKY/WX    TMP DP  RH WIND       PRES   REMARKS
WATERLOO       CLEAR     68  65  90 CALM      30.02R
DUBUQUE        CLEAR     68  65  90 CALM      30.04S
DECORAH        MOCLDY    70  68  94 CALM      30.03S
MASON CITY     CLOUDY    67  65  93 S6        30.04F
CHARLES CITY   CLEAR     68  68 100 CALM      30.04S
OELWEIN        CLEAR     68  66  94 CALM      30.04S
$$

...ELSEWHERE IN IOWA...


CITY           SKY/WX    TMP DP  RH WIND       PRES   REMARKS
DES MOINES     CLEAR     76  65  68 CALM      30.02S
IOWA CITY      CLEAR     71  67  87 CALM      30.02S
FORT DODGE     CLOUDY    72  66  83 S3        30.04F
MARSHALLTOWN   CLEAR     67  65  93 CALM      30.02F
CEDAR RAPIDS   CLEAR     68  68 100 CALM      30.02R
$$

...NORTHERN ILLINOIS...


CITY           SKY/WX    TMP DP  RH WIND       PRES   REMARKS
CHICAGO-OHARE  CLEAR     73  64  73 S3        30.01S
CHICAGO-MIDWAY PTCLDY    79  62  56 S3        30.01S
MOLINE         CLEAR     70  66  87 CALM      30.01S
ROCKFORD       CLEAR     73  66  78 CALM      30.02F
PEORIA         CLEAR     75  71  87 NE3       30.01F
$$

NOTE: "FAIR" INDICATES FEW OR NO CLOUDS BELOW 12,000 FEET WITH NO
SIGNIFICANT WEATHER AND/OR OBSTRUCTIONS TO VISIBILITY. WIND
SPEEDS ARE IN MILES-PER-HOUR.




USA.gov is the U.S. government's official web portal to all federal, state and local government web resources and services.